Regional Weather Roundup
Issued by NWS Newport/Morehead, NC

Current Version | Previous Version | Graphics & Text | Print | Product List | Glossary Off
Versions: 1 2 3 4 5 6 7 8 9 10 11 12 13 14 15 16 17 18 19 20 21 22 23 24 25 26 27 28 29 30 31 32 33 34 35 36 37 38 39 40 41 42 43 44 45 46 47 48 49 50
765 ASUS42 KMHX 260325 RWRMHX WEATHER ROUNDUP FOR EASTERN NORTH CAROLINA NATIONAL WEATHER SERVICE NEWPORT/MOREHEAD CITY NC 1000 PM EST SAT FEB 25 2017 NOTE: "FAIR" INDICATES FEW OR NO CLOUDS BELOW 12,000 FEET WITH NO SIGNIFICANT WEATHER AND/OR OBSTRUCTIONS TO VISIBILITY NCZ015>017-031-032-045>047-102-103-260400- NORTH COAST CITY SKY/WX TMP DP RH WIND PRES REMARKS EDENTON CLOUDY 64 44 47 NW6 29.76R ELIZABETH CITY CLOUDY 63 41 44 NW18G25 29.73R KITTY HAWK NOT AVBL MANTEO CLOUDY 62 47 58 NW9G17 29.74R $$ NCZ045>047-081-094-103-104-260400- CENTRAL COAST CITY SKY/WX TMP DP RH WIND PRES REMARKS FRISCO PTCLDY 67 60 78 SW17G29 29.70R HAZE $$ NCZ095-097-098-100-101-260400- SOUTHERN COAST CITY SKY/WX TMP DP RH WIND PRES REMARKS BEAUFORT PTCLDY 64 60 87 SW16G23 29.74R CEDAR ISLAND NOT AVBL JACKSONVILLE PTCLDY 64 58 80 W8 29.76R PINEY ISLAND PTCLDY N/A N/A N/A SW14 29.72R WILMINGTON PTCLDY 65 50 58 W16 29.79R $$ NCZ011>013-027>030-043-044-078>080-089-090>093-098-260400- COASTAL PLAIN CITY SKY/WX TMP DP RH WIND PRES REMARKS AHOSKIE N/A 58 35 41 CALM 29.78R CLINTON CLEAR 64 24 22 NW9G20 29.82R ELIZABETHTOWN CLEAR 65 23 20 W9 29.82R GOLDSBORO CLEAR 65 28 25 W12 29.76R GREENVILLE CLEAR 61 37 41 N8 29.80R HAVELOCK PTCLDY 64 58 80 SW10 29.75R KENANSVILLE CLEAR 64 27 24 NW8 29.80R KINSTON CLEAR 62 41 46 CALM 29.79R NEW BERN CLEAR 65 58 78 SW9 29.74R RICHLANDS PTCLDY 64 49 57 SW8 29.77R ROCKY MOUNT CLEAR 60 32 34 NW8 29.78R WASHINGTON PTCLDY 61 43 51 NW6 29.76R WHITEVILLE CLEAR 65 22 19 W5 29.82R $$ AMZ130-135-150-152-154-156-158-170-250-252-270-ANZ085-086-088-633-658-670-260400- MARINE OBSERVATIONS STATION/POSITION TIME TEMP WIND PRES WAVE SWELL AIR SEA DIR/SP/G HT/PER HT/PER (UTC) (F) (DEG/KT/KT) (MB) (FT/S) (FT/S) CHESAPEAKE LIGHT NOT AVBL 64 E VA BEACH 0250 55 52 330/ 21/ 25 1004.5 7/11 5/11 DUCK 0300 63 47 310/ 11/ 14 1005.8 2 E DUCK 0300 50 N/A 4/11 2/11 OREGON INLET 0300 64 61 310/ 13/ 16 1005.9 13E OREGON INLT NOT AVBL HATTERAS CG 0300 65 64 230/ 15/ 20 1005.5 DIAMOND BUOY 0250 72 75 240/ 29/ 33 1005.2 10/ 7 CAPE LOOKOUT 0300 65 240/ 14/ 19 1006.7 BEAUFORT LAB 0300 63 64 260/ 7/ 14 1006.3 30 SE NEW RVR IN 0308 66 250/ 17/ 25 1007.7 30 SE NEW RVR IN 0313 66 N/A 8/10 2/11 27 SE WRIGHTSVLE 0308 65 63 260/ 17/ 23 1007.9 5 SE WRIGHTSVLE 0308 63 58 260/ 12/ 16 1008.7 225 S CAPE HAT 0250 71 71 230/ 16/ 19 1011.5 6/10 5/10 41 SE CHARLESTON 0250 71 70 260/ 19/ 25 1009.9 6/11 3/11 $$

USA.gov is the U.S. government's official web portal to all federal, state and local government web resources and services.